GEFSGL_500_meanwind_042.txt.gz
Wind_Speed
45 45 46 46 45 44 42 41 41 41 40 41 41 41 42 43 43 44 46 47 48 48 49 50 52 54 55 56 57 57 58 58 58 59 60 61 62 63 63 62 61 60 58
48 47 46 45 45 45 45 44 44 43 43 44 45 46 48 48 48 48 50 51 52 52 53 54 56 57 57 57 57 57 56 57 58 58 59 60 61 60 59 58 56 54 52
47 46 47 47 46 46 46 45 45 46 46 47 48 50 50 51 51 52 53 54 55 56 57 58 57 57 57 57 56 56 56 57 57 57 57 58 57 57 55 52 50 48 47
47 47 47 47 47 46 46 46 47 49 50 49 50 52 52 53 54 54 55 56 57 58 59 58 57 56 56 56 55 55 55 55 55 55 55 54 53 52 49 46 44 42 41
43 44 45 46 46 46 46 47 48 49 50 49 50 52 52 53 53 55 57 57 58 58 57 57 56 55 54 54 54 53 53 53 53 53 51 50 48 46 44 41 38 36 36
38 38 39 41 43 45 46 47 47 48 50 50 52 53 55 56 57 58 58 57 57 56 56 55 54 53 53 53 52 52 51 50 50 48 46 44 43 41 37 35 34 33 31
34 35 36 38 40 41 44 45 46 48 49 51 54 55 56 56 57 57 56 55 55 54 54 53 53 52 52 52 50 49 48 47 45 43 41 39 36 33 31 30 30 30 29
33 34 36 38 40 42 44 46 48 50 51 52 53 54 55 56 56 56 55 54 54 53 52 52 52 50 49 48 47 45 44 43 40 38 35 32 29 27 26 26 26 27 29
33 34 36 38 40 42 43 46 48 49 51 52 53 53 54 54 54 54 53 53 52 51 51 50 48 47 45 43 41 40 38 37 34 31 27 24 23 23 23 24 25 26 28
33 34 36 37 39 40 42 44 45 47 48 50 51 51 51 51 51 51 50 49 48 47 46 44 42 41 39 36 34 33 31 29 27 24 20 19 20 20 21 23 25 27 28
32 33 35 36 38 39 41 43 44 45 46 47 47 47 47 46 46 45 45 44 44 42 41 38 35 33 30 28 26 24 22 21 19 17 17 17 18 20 22 24 25 27 28
29 30 32 34 36 38 40 41 42 43 43 43 43 42 41 40 40 40 39 38 36 34 31 28 25 23 21 19 17 15 14 13 13 13 14 16 18 20 22 24 25 27 27
26 28 30 32 34 35 36 37 37 37 37 37 37 36 35 34 33 32 30 27 23 20 18 16 15 13 11 10 8 8 8 8 9 11 13 15 18 20 22 23 25 26 26
24 26 27 29 30 32 32 32 32 31 31 30 29 28 27 26 24 21 17 14 12 10 8 6 5 4 3 2 2 3 4 6 9 11 13 16 18 20 22 23 24 25 25
22 23 25 26 28 28 27 27 26 25 24 23 22 20 19 16 14 11 8 5 3 1 2 3 3 4 4 3 3 4 5 7 9 12 14 16 18 20 21 23 24 24 22
20 21 23 24 25 25 24 23 22 20 19 17 16 14 12 9 7 5 4 5 6 7 8 8 8 9 8 8 7 7 8 9 11 13 15 17 19 20 22 23 23 23 22
19 20 20 22 22 22 21 20 19 17 15 13 12 10 9 8 8 9 10 11 11 12 12 12 12 11 10 10 9 9 10 11 12 14 16 18 20 22 23 23 24 23 23
17 18 18 19 19 19 19 18 16 15 13 11 10 10 9 10 11 12 14 14 14 15 15 14 13 12 11 11 10 11 11 12 13 15 17 19 21 23 24 24 24 23 23
15 16 17 17 18 18 17 16 15 14 13 12 11 11 12 12 14 15 16 16 16 15 14 13 13 12 12 12 12 12 13 14 15 16 18 20 21 23 24 24 24 23 23
14 15 15 16 16 16 16 16 15 14 14 13 13 13 13 14 15 16 16 16 16 15 14 13 13 12 12 12 12 13 13 14 15 17 18 20 21 22 23 24 24 23 23
12 13 13 14 14 15 15 15 14 14 13 13 13 14 14 15 15 16 16 16 15 15 14 13 13 13 13 13 13 13 14 15 16 17 18 20 21 21 22 23 23 23 22
10 11 11 12 13 13 13 13 14 13 13 14 14 14 14 15 15 15 15 14 14 14 13 13 13 13 13 13 13 13 14 16 17 18 19 19 20 21 21 22 23 23 22
9 10 10 10 11 11 11 12 12 12 13 13 13 14 13 13 13 13 13 12 12 12 12 12 12 12 13 13 13 14 15 16 18 18 18 19 19 20 20 21 22 22 21
8 9 9 9 9 9 9 9 10 10 10 11 11 11 12 12 11 11 10 10 10 10 11 11 12 12 12 13 13 14 15 17 18 18 18 19 19 19 19 20 20 20 20
8 8 8 8 8 8 8 8 7 8 8 8 8 8 8 8 8 8 8 8 8 8 9 10 11 11 12 13 13 14 15 17 18 18 19 19 19 19 19 19 19 19 19
7 7 7 7 7 7 7 6 6 6 6 6 6 6 6 6 6 5 6 6 7 7 8 9 10 11 12 13 13 15 15 16 17 18 19 19 19 19 19 19 19 19 19

GEFSGL_500_meanwind_048.txt.gz
Wind_Speed
44 44 45 46 46 47 46 47 48 48 49 48 47 46 46 45 46 46 45 45 45 47 48 49 49 51 52 54 56 57 60 61 63 64 65 65 65 65 65 64 63 62 63
45 46 47 47 47 48 48 49 49 49 49 49 48 48 48 48 48 48 47 46 47 50 52 53 53 55 56 58 59 60 61 62 64 65 64 64 64 63 62 60 60 60 60
46 46 46 46 47 48 49 50 49 50 50 50 50 50 49 50 50 49 48 49 50 53 55 57 57 57 58 59 60 61 62 62 63 62 62 62 60 59 58 57 57 56 55
45 44 45 45 46 46 47 48 49 49 50 51 51 50 51 51 50 49 51 53 54 56 58 59 59 60 60 60 61 62 62 62 61 61 59 58 57 55 54 53 53 51 50
42 42 42 42 42 43 44 45 45 46 48 48 48 49 51 52 52 52 54 56 58 59 60 61 60 60 60 61 61 61 61 60 58 56 55 53 52 51 50 49 48 47 45
39 40 41 41 42 42 42 42 42 44 46 47 48 49 50 52 53 55 57 58 59 60 61 62 62 61 60 60 59 57 56 54 53 51 49 48 47 46 45 44 43 41 38
36 37 38 38 39 40 39 40 42 43 45 46 47 49 51 53 56 57 58 59 60 61 61 61 60 59 58 56 54 51 49 46 45 43 42 41 40 40 39 38 36 35 34
34 35 36 36 37 38 39 40 42 43 45 47 48 50 52 54 55 57 57 58 59 59 58 57 57 55 53 50 46 44 41 38 36 35 34 33 33 33 32 31 30 30 31
32 33 34 35 37 38 39 39 41 42 44 45 47 49 50 51 53 54 55 55 54 53 52 50 48 45 42 39 36 34 31 30 29 28 27 27 26 26 25 26 26 26 28
29 29 30 31 33 34 35 36 38 40 42 44 45 47 48 49 49 49 49 47 45 43 41 39 36 33 30 29 27 25 24 23 22 21 21 20 20 21 21 22 23 24 26
25 26 27 28 30 31 33 34 36 38 39 41 43 44 44 44 43 41 39 37 35 32 29 26 24 22 21 19 18 17 17 16 15 15 15 15 16 17 18 20 21 22 23
23 24 24 26 27 28 29 31 32 34 35 36 37 36 35 34 32 30 27 24 21 19 17 15 14 13 12 11 11 10 10 9 9 10 11 12 14 16 17 19 20 21 22
20 20 22 23 24 25 27 28 29 31 31 31 29 27 25 23 20 18 15 13 11 9 7 6 6 5 5 5 5 5 5 6 7 8 10 11 13 15 16 18 20 20 20
18 18 19 21 22 23 25 26 26 26 26 24 23 20 17 14 12 10 8 7 5 4 4 4 5 5 5 5 5 6 6 7 7 8 9 11 13 15 16 17 18 19 19
16 17 18 19 20 21 22 22 22 21 20 18 16 14 12 9 8 7 6 7 7 7 7 7 7 7 7 6 6 6 6 7 8 8 10 11 13 14 15 16 17 18 18
14 15 16 17 18 19 19 18 18 17 16 14 12 11 9 8 8 8 9 9 10 10 10 9 8 7 7 7 6 7 7 8 8 9 10 11 13 14 15 16 16 17 17
13 14 15 15 16 16 15 15 15 14 13 11 10 10 10 10 10 11 12 12 12 12 11 10 9 8 8 7 8 8 8 8 9 10 11 12 13 14 15 15 16 16 16
11 12 13 13 13 13 13 13 12 11 10 10 10 10 11 11 11 12 12 12 12 11 11 10 9 9 8 8 8 8 9 9 9 10 11 12 13 14 15 15 15 15 15
10 10 11 11 11 11 11 11 11 10 9 9 10 11 11 11 11 11 11 11 11 11 10 10 9 9 9 9 9 9 10 10 11 12 12 13 13 14 15 14 15 15 15
8 8 8 8 9 9 9 9 9 9 9 9 10 10 11 11 11 10 10 10 11 10 10 10 10 9 9 10 10 10 11 12 12 13 13 13 13 14 14 14 14 14 15
6 6 7 7 7 8 8 8 8 8 9 9 9 9 10 10 9 10 10 10 10 10 10 10 10 10 10 10 10 11 12 13 13 13 13 13 13 14 14 14 14 14 15
5 5 6 6 6 6 7 7 7 7 8 8 8 8 8 8 8 9 9 9 9 9 10 10 10 10 10 10 11 13 13 14 14 13 13 13 13 13 14 14 14 14 15
5 5 5 5 5 5 5 5 6 6 6 6 6 6 6 7 7 7 7 8 8 9 9 9 10 10 10 11 12 13 14 14 14 14 14 14 14 14 14 14 14 14 14
4 4 4 4 4 3 3 3 4 4 4 4 4 4 4 4 5 5 6 7 7 8 8 9 10 10 11 12 13 13 14 14 14 14 14 14 14 14 14 14 14 14 14
4 4 3 3 3 2 2 2 2 2 3 3 3 3 3 4 4 4 5 5 6 7 8 9 10 11 11 12 13 13 14 14 14 14 14 14 14 14 14 14 14 14 15
4 4 3 2 2 2 2 2 1 1 1 2 2 3 3 3 4 4 4 5 6 7 7 8 10 10 11 12 12 13 14 15 15 15 15 15 14 14 14 14 15 15 15

GEFSGL_500_meanwind_054.txt.gz
Wind_Speed
40 41 41 42 44 44 44 45 46 47 47 47 47 47 47 47 47 47 48 48 49 48 48 50 50 51 52 52 53 55 57 58 61 62 63 65 65 66 67 67 67 67 67
41 42 42 43 44 45 45 46 48 48 49 49 49 49 49 50 49 49 49 50 51 52 52 52 53 54 55 55 57 58 59 60 62 64 65 66 65 65 65 64 64 64 64
41 42 44 44 45 45 46 48 48 49 50 51 50 51 51 51 51 51 52 52 53 54 54 54 55 56 58 58 59 60 61 63 63 63 64 64 62 62 61 59 57 56 55
42 43 44 44 45 47 48 49 49 49 50 50 51 51 52 52 52 53 53 54 55 55 55 55 56 56 57 58 59 60 60 61 61 60 59 57 55 53 51 49 48 47 46
41 43 44 45 46 46 47 48 48 48 49 50 51 52 52 52 53 53 53 53 54 54 55 56 56 55 55 56 57 57 57 56 55 53 50 48 47 45 44 43 42 41 40
40 41 42 43 43 44 45 46 46 47 48 49 49 49 51 51 51 52 53 53 54 55 55 55 54 54 53 54 55 54 52 49 47 44 43 41 41 40 40 39 37 36 35
38 38 39 40 40 41 41 43 44 45 46 47 47 47 48 50 51 52 53 54 54 53 52 51 51 51 50 49 48 46 44 41 39 38 37 36 35 33 32 31 30 30 30
35 35 36 36 37 38 39 40 41 42 43 43 44 45 46 48 49 49 50 50 49 49 48 47 46 45 43 42 39 37 35 34 32 30 29 27 26 26 25 24 24 25 26
31 32 33 33 34 34 35 36 37 38 39 40 41 42 44 45 45 45 45 45 45 44 42 40 38 35 33 31 29 28 27 25 23 22 21 20 19 19 20 20 21 21 21
27 28 28 29 30 31 32 33 34 34 36 36 37 39 40 41 41 40 40 38 36 33 29 26 24 22 21 21 20 19 17 16 14 14 13 13 14 15 16 18 18 19 19
24 24 25 25 26 27 28 29 30 31 31 33 34 35 35 34 34 32 30 27 24 20 17 14 13 13 12 12 11 10 9 8 8 8 9 10 11 13 15 16 16 17 18
21 22 22 23 23 23 24 25 26 27 28 29 29 29 28 26 24 22 19 16 13 11 9 8 7 8 8 8 8 8 7 7 7 7 9 9 11 12 13 14 15 16 17
18 19 19 19 20 21 22 23 23 24 24 24 23 22 20 18 16 14 12 10 8 8 7 7 8 9 9 9 9 9 9 8 8 9 9 10 11 12 13 13 14 15 16
15 16 16 17 18 19 19 20 20 19 19 18 18 17 15 13 11 10 9 8 8 8 8 9 10 10 10 11 10 10 10 10 9 10 10 12 12 13 13 13 13 14 15
14 14 15 16 16 16 17 16 15 15 15 14 13 12 11 10 9 9 9 9 8 9 9 9 9 9 10 10 10 9 9 9 10 10 11 12 13 13 13 13 13 13 13
13 13 14 14 14 14 13 12 12 12 12 11 10 10 9 9 9 9 9 9 9 9 9 9 9 9 9 9 9 9 9 9 10 11 12 12 12 12 12 12 12 12 12
13 12 13 12 11 11 10 10 10 10 9 8 8 8 9 9 9 9 8 9 8 8 9 9 8 8 9 9 9 9 9 10 10 11 11 11 11 11 12 12 11 11 11
11 11 10 10 9 8 8 8 8 7 7 6 6 7 7 8 8 8 8 9 9 9 9 8 8 8 9 9 10 10 10 11 11 11 11 11 11 11 11 11 10 10 10
9 9 8 8 7 7 6 6 6 6 6 5 5 6 7 7 7 8 9 9 10 9 9 9 9 9 9 10 10 11 11 12 12 11 11 10 10 10 10 10 10 9 10
7 7 6 6 6 5 5 5 5 5 4 4 5 5 6 6 7 8 9 9 9 10 10 11 10 10 10 11 12 12 12 12 12 11 10 10 10 10 9 9 9 9 9
6 6 5 5 5 4 4 4 4 4 3 4 4 5 5 6 6 7 8 9 9 10 11 11 11 11 11 12 12 12 12 12 11 10 10 10 10 9 9 8 8 9 9
5 5 5 4 4 3 3 3 3 3 3 3 3 4 5 6 7 7 8 9 9 10 11 11 11 11 12 12 13 12 12 12 11 11 10 10 10 9 8 8 8 8 8
5 5 4 4 3 3 3 3 3 3 3 3 4 4 5 6 7 8 8 9 9 10 10 11 11 12 12 12 13 13 12 12 11 11 10 10 10 9 8 8 8 8 8
5 4 4 4 3 3 3 3 3 3 3 4 4 5 6 6 7 7 8 8 8 9 10 11 11 11 12 12 13 13 12 12 11 11 10 10 9 9 9 8 8 8 9
4 4 3 3 3 3 3 3 3 4 4 5 5 5 6 6 7 7 7 8 8 8 9 11 11 11 12 12 13 13 13 12 12 11 10 10 10 9 9 9 9 9 10
5 4 4 3 3 2 3 3 3 4 4 4 5 5 6 6 6 6 7 7 8 8 10 10 11 11 11 12 12 13 13 12 12 11 11 10 10 10 10 10 10 11 11

GEFSGL_500_meanwind_060.txt.gz
Wind_Speed
32 32 33 33 33 33 33 34 35 36 37 38 38 39 39 40 41 42 42 43 44 45 46 46 46 47 48 49 50 51 52 53 55 55 56 58 59 60 61 61 61 61 61
32 33 33 33 34 34 35 36 37 38 39 40 41 41 42 43 44 44 44 45 46 47 47 47 48 48 50 51 52 53 54 55 55 57 57 58 58 58 58 57 57 57 56
33 34 34 35 35 36 37 38 39 40 41 42 43 44 44 45 45 45 46 46 47 47 48 49 50 51 51 52 52 53 54 54 54 54 54 54 54 54 54 54 53 52 51
33 34 35 36 37 37 38 39 40 41 42 43 44 44 44 45 45 45 46 47 47 48 49 50 51 51 51 52 52 52 52 52 52 51 51 51 51 51 50 49 48 47 46
33 34 35 35 36 37 38 39 41 41 42 43 43 43 44 44 44 46 47 47 48 48 48 49 49 50 50 50 50 50 50 50 49 47 47 47 46 45 43 42 41 41 40
32 32 33 34 35 36 37 38 39 40 40 41 41 41 42 43 44 45 45 45 45 45 45 46 46 45 45 44 44 44 43 42 42 42 41 40 38 37 35 34 33 33 32
30 31 32 33 34 35 35 36 36 37 37 37 38 38 40 40 41 41 41 41 41 42 42 41 39 38 37 36 36 36 35 35 34 34 32 31 30 29 28 28 27 27 26
28 29 29 30 30 31 32 33 33 33 34 34 35 36 37 37 37 37 36 36 36 35 33 32 31 30 29 28 27 27 27 26 25 24 24 23 22 22 22 22 21 21 20
25 26 26 27 28 29 29 29 29 30 31 32 33 33 32 32 31 30 30 29 29 28 27 25 24 23 21 21 20 19 19 18 17 16 16 16 17 16 16 16 16 16 16
24 24 24 24 24 24 25 25 26 27 28 29 28 28 27 26 26 26 25 24 24 23 21 19 18 17 15 15 14 13 12 12 11 11 11 12 12 12 12 13 14 14 15
21 21 21 21 21 22 22 23 23 24 25 24 24 22 22 21 20 20 20 19 19 18 17 15 13 12 12 12 11 11 10 10 10 9 10 10 11 11 12 12 13 13 14
18 19 19 19 20 20 21 21 20 20 20 19 18 17 17 16 17 17 16 15 15 14 13 12 11 11 11 11 11 11 11 10 10 10 10 11 11 12 12 12 13 13 14
17 17 17 18 18 17 17 17 16 15 15 14 13 13 13 13 13 13 12 12 12 11 11 11 10 10 11 11 11 11 11 11 11 11 11 12 12 12 12 13 13 14 14
15 15 15 15 14 13 13 13 12 12 11 11 11 10 11 11 11 11 10 10 10 10 10 10 10 10 10 11 12 12 12 12 12 12 12 12 13 13 13 13 13 13 13
14 14 13 12 11 11 11 11 10 10 9 9 9 9 9 9 10 10 10 9 9 9 10 10 10 11 11 11 12 12 12 12 13 13 13 13 13 13 13 13 13 12 13
11 11 10 10 10 9 9 9 8 8 8 8 7 7 8 9 9 9 10 9 9 9 10 11 11 11 11 12 12 12 13 13 13 13 13 13 13 13 13 12 12 12 12
10 10 10 9 9 8 8 7 7 7 7 6 6 6 7 7 8 9 9 9 9 10 10 12 12 12 12 12 13 13 13 14 13 13 12 12 13 12 12 12 12 12 12
9 9 9 8 7 7 6 6 6 5 5 5 5 5 6 7 8 8 9 9 10 10 11 12 12 13 13 13 13 14 14 13 13 12 12 12 12 12 11 11 11 11 11
7 7 7 6 6 5 5 5 5 5 4 4 5 5 5 6 7 8 9 9 10 11 11 12 13 13 13 14 14 14 14 13 12 12 12 12 12 11 11 10 10 11 11
6 6 5 5 4 4 4 4 4 4 3 3 4 4 5 6 7 8 8 9 10 11 12 13 13 14 14 14 14 14 13 12 12 12 12 12 11 10 10 10 10 10 10
4 4 3 4 4 4 4 3 3 3 3 3 4 4 5 6 7 7 8 9 10 11 12 13 14 14 14 14 14 14 13 12 12 12 11 11 10 10 9 9 9 9 9
3 3 3 3 3 3 3 3 2 2 2 3 4 5 6 6 7 8 8 9 10 11 12 13 14 14 14 14 14 13 13 12 12 11 11 11 10 9 9 9 9 9 9
3 2 2 2 2 2 2 2 2 2 2 3 4 5 6 6 6 7 8 9 10 11 12 13 13 13 13 13 13 13 12 12 12 11 11 11 10 9 9 9 9 9 9
4 3 3 2 1 1 1 2 2 2 3 3 4 5 5 6 6 7 8 9 9 10 12 12 13 13 13 13 13 13 12 12 11 11 11 10 10 10 10 10 10 10 10
7 6 4 3 2 2 2 2 2 2 3 3 4 4 5 5 6 6 7 8 9 10 11 12 12 12 13 13 13 13 12 12 11 11 11 11 11 11 11 11 11 11 12
9 8 7 6 5 5 4 4 3 3 3 3 3 4 5 5 5 6 7 8 9 10 11 11 11 12 12 13 13 13 13 12 12 12 12 12 12 12 13 13 13 14 14

GEFSGL_500_meanwind_066.txt.gz
Wind_Speed
25 25 25 25 24 24 24 24 24 25 24 25 27 28 29 31 32 33 35 37 38 40 40 41 43 44 45 47 48 49 51 52 53 53 54 56 57 57 57 58 59 59 59
25 25 25 25 25 25 25 25 25 25 26 27 28 30 31 33 34 36 38 39 40 41 42 43 44 45 46 47 48 49 51 52 52 53 54 56 57 58 58 58 58 57 57
26 26 25 25 25 25 25 26 26 27 28 29 30 32 33 35 36 38 39 40 41 41 42 43 44 44 44 45 46 47 48 49 50 51 52 52 53 53 53 54 54 53 53
26 26 25 25 26 26 26 27 28 29 30 31 32 33 34 36 37 38 39 40 41 41 42 42 42 42 43 43 44 45 45 46 46 46 46 46 47 48 48 47 46 46 46
26 26 26 26 26 27 27 27 28 29 30 31 32 33 34 35 36 37 38 38 39 39 39 39 40 40 40 40 40 40 40 40 40 40 39 39 39 38 38 38 37 37 36
26 26 26 26 26 26 26 26 27 28 29 30 31 32 33 34 34 35 35 36 37 37 36 35 35 35 35 35 35 34 34 34 34 33 33 32 31 31 31 30 30 30 30
25 26 25 25 25 26 26 26 27 28 28 28 29 30 31 31 32 33 33 33 32 31 30 30 30 30 30 29 29 30 29 29 28 27 26 26 25 25 25 25 25 25 24
24 24 24 24 24 25 25 25 26 26 26 26 27 28 29 29 29 29 29 27 26 26 27 26 26 26 25 25 25 25 25 24 23 22 22 22 22 22 21 21 21 21 21
21 21 21 22 22 22 23 23 23 23 23 23 24 24 25 25 25 24 23 22 21 22 22 22 21 21 21 21 21 21 21 20 19 19 19 18 18 17 17 17 16 16 16
18 19 19 19 20 20 20 21 20 20 21 21 21 21 21 21 20 18 17 17 17 17 17 17 16 17 17 18 18 18 18 17 17 16 16 15 15 14 14 14 14 14 13
16 16 17 17 18 18 19 19 19 18 18 18 18 18 18 16 16 15 14 14 14 14 15 15 15 16 17 17 17 16 16 16 15 15 14 14 14 13 13 13 13 12 12
16 16 17 17 17 17 17 17 16 16 16 16 15 15 14 14 13 13 12 12 12 13 13 14 15 15 16 16 16 15 15 15 14 14 14 14 14 13 13 13 12 12 11
15 16 16 16 16 15 15 14 14 13 13 13 13 12 12 11 11 11 11 11 12 12 13 13 14 15 15 15 15 15 15 14 14 14 14 14 13 13 12 12 12 11 11
14 14 14 14 14 13 13 12 12 11 11 10 10 10 10 9 9 10 10 11 11 12 12 13 14 15 15 15 15 15 14 14 14 14 14 13 12 12 11 11 10 10 10
12 13 12 12 12 11 10 10 10 9 9 8 8 8 8 8 8 9 9 10 11 12 13 13 14 15 15 15 15 15 14 14 14 13 12 12 12 11 10 10 9 9 9
12 12 11 11 11 10 9 9 8 7 7 6 7 7 7 7 8 8 9 10 11 11 12 13 14 14 14 15 15 14 14 14 13 12 12 11 11 10 9 8 8 9 9
10 10 10 9 9 8 7 6 6 6 5 5 6 6 6 7 7 8 8 9 10 11 12 13 14 14 14 14 14 13 13 12 12 11 11 10 10 9 8 8 8 8 9
7 7 7 6 6 6 6 5 5 5 4 5 5 5 6 7 7 8 8 9 10 11 12 13 13 14 14 14 13 13 12 11 11 10 10 10 9 8 7 7 7 8 8
5 5 5 5 5 5 4 4 4 4 4 5 5 5 6 7 7 8 8 9 10 11 12 13 13 13 13 13 12 12 11 10 10 9 9 8 8 7 7 6 7 7 8
4 4 3 3 3 3 3 3 3 4 4 4 5 5 6 6 7 8 8 9 10 11 12 13 13 12 12 12 12 11 11 10 9 8 8 7 7 7 7 7 7 8 9
3 2 2 1 1 1 2 2 2 3 3 4 4 5 5 6 7 8 8 9 10 11 12 12 12 12 12 11 11 11 10 9 8 8 7 7 6 7 7 7 8 9 9
3 2 2 1 0 0 0 1 1 2 3 3 4 5 5 6 7 8 8 9 10 10 11 12 12 11 11 11 11 10 10 9 8 7 7 7 7 7 8 8 9 10 11
6 5 4 3 3 2 2 2 2 2 3 3 4 5 5 6 7 7 8 8 9 10 11 11 11 11 10 10 10 10 9 9 8 8 8 8 8 8 9 9 10 11 12
9 8 7 6 5 4 3 3 2 2 3 3 4 4 5 6 6 7 8 8 9 10 11 11 11 11 10 10 10 9 9 9 8 8 8 8 9 9 10 11 12 12 13
11 10 9 8 7 6 5 5 4 4 4 4 4 5 5 6 7 7 8 8 9 10 11 11 11 11 11 10 10 10 10 9 9 9 9 10 10 11 11 12 13 14 14
12 11 11 10 10 9 8 7 7 6 6 6 6 6 7 7 8 8 9 9 10 10 10 11 11 11 11 11 11 11 11 11 10 10 11 11 12 12 13 13 14 14 15

GEFSGL_500_meanwind_072.txt.gz
Wind_Speed
28 27 27 25 25 23 22 21 20 20 21 23 24 24 24 25 26 27 28 29 30 32 34 35 37 38 40 42 43 45 46 47 49 50 51 52 54 55 55 56 57 58 58
28 28 27 26 25 24 23 23 22 22 22 23 24 23 24 25 26 28 29 31 32 33 35 37 38 39 41 42 43 45 46 47 48 49 50 51 52 53 53 53 54 54 54
28 27 27 26 25 24 24 24 24 24 24 24 25 25 25 26 27 29 30 31 33 34 36 37 38 40 41 42 43 44 44 45 46 46 47 48 48 49 49 49 50 49 48
27 27 27 26 26 25 26 26 26 25 25 26 26 27 27 28 29 30 31 32 33 34 36 37 38 39 40 41 41 41 42 42 42 43 43 44 44 44 45 44 43 41 40
27 27 27 26 26 26 26 26 26 25 25 25 26 26 27 28 29 30 30 31 33 34 35 36 37 37 37 38 38 39 39 39 39 39 40 40 40 40 39 38 36 34 33
26 26 26 26 25 25 25 26 25 25 24 24 25 26 27 27 28 28 29 31 32 33 34 34 34 34 34 36 36 35 35 35 35 35 35 35 35 34 33 31 30 29 29
24 24 24 24 24 25 24 24 24 24 24 25 25 26 26 26 27 28 28 29 30 30 30 30 30 30 30 29 29 29 29 28 28 29 29 28 28 27 27 26 26 25 24
22 23 22 22 22 22 23 23 23 24 23 23 24 24 25 25 25 26 27 26 25 25 25 25 25 25 25 25 24 24 24 25 25 25 24 24 24 24 23 22 21 21 19
19 20 20 20 21 21 21 21 22 22 22 23 23 23 23 23 23 23 23 22 22 23 23 23 23 22 22 22 22 22 22 22 22 22 21 21 21 21 20 19 18 17 16
18 18 19 19 19 20 20 20 20 21 21 21 21 21 21 21 21 21 20 20 20 20 20 20 20 19 20 20 20 20 20 19 19 20 19 19 19 19 18 16 15 14 13
17 17 17 18 18 18 19 19 19 19 19 19 20 19 19 19 19 18 18 18 18 18 18 17 17 17 17 18 18 18 18 17 17 17 17 17 17 15 14 14 13 12 11
15 16 16 17 17 17 18 18 18 18 18 18 17 16 16 16 16 15 15 15 15 15 15 15 15 16 16 17 17 17 16 16 16 16 15 15 14 13 12 11 11 11 10
14 14 14 14 15 16 16 16 16 16 16 15 14 14 14 14 13 13 13 14 13 13 13 13 14 15 15 16 15 15 15 15 14 14 14 13 12 11 11 10 10 10 9
13 13 13 13 13 13 13 14 14 13 13 13 12 12 12 12 12 12 12 12 12 12 12 13 13 13 14 14 14 14 14 13 13 13 12 11 11 10 10 9 9 8 8
11 11 12 12 12 12 12 12 12 12 11 11 11 11 10 11 11 11 11 11 11 12 12 12 12 13 13 13 13 13 13 12 12 11 10 10 9 9 8 7 7 7 6
10 10 10 10 10 10 10 11 11 11 11 10 10 9 9 10 10 9 10 10 10 10 11 11 12 12 13 13 13 12 12 11 10 10 9 8 8 7 7 6 6 6 6
8 9 9 9 9 9 9 10 10 9 9 9 9 8 8 8 8 8 8 9 9 9 10 11 11 12 12 12 11 11 10 10 9 9 8 7 7 6 5 4 5 5 6
7 7 7 7 8 8 8 8 8 8 8 8 7 7 7 7 7 7 7 8 8 9 9 10 11 11 11 11 10 10 9 9 8 8 7 6 6 5 4 3 4 5 5
4 5 5 5 6 6 6 7 7 7 6 6 6 6 6 6 6 6 6 7 8 8 9 10 10 10 10 10 10 9 9 8 8 7 6 5 4 4 3 3 4 4 5
2 3 3 4 4 4 4 5 5 5 5 5 5 5 5 5 5 5 5 6 7 8 8 9 9 9 9 9 9 8 8 7 7 6 5 5 4 4 4 4 4 4 5
1 1 2 3 3 3 3 3 3 3 4 4 4 4 4 4 4 4 5 6 7 7 8 8 9 8 8 8 8 7 7 6 5 5 5 4 4 4 4 4 5 5 5
4 4 3 3 2 2 2 2 2 2 2 2 2 2 2 2 3 3 4 5 6 7 8 8 8 8 7 7 7 6 6 6 5 4 4 4 5 5 5 5 6 6 7
7 6 5 4 3 3 2 2 2 1 1 1 0 0 0 1 2 3 4 5 6 7 7 7 7 7 7 7 6 6 5 5 5 5 5 5 5 6 7 7 7 8 8
9 8 7 6 5 5 4 4 4 3 3 3 3 2 2 2 3 4 4 5 6 7 7 7 7 7 7 7 6 6 6 5 5 5 5 6 7 7 8 8 8 9 9
11 10 10 9 8 8 7 7 6 6 5 5 5 5 5 5 5 5 6 6 7 7 8 8 8 8 8 8 7 7 7 7 7 7 7 8 8 9 9 9 9 9 9
13 12 12 11 11 10 9 9 8 8 8 8 7 7 7 7 7 7 7 7 8 8 9 9 9 9 9 9 9 9 8 9 9 9 9 9 9 9 9 9 9 9 8

GEFSGL_500_meanwind_078.txt.gz
Wind_Speed
26 26 26 25 24 24 25 25 24 24 24 25 25 25 25 26 27 28 29 30 30 31 31 31 32 33 34 35 37 38 39 41 42 44 45 46 47 48 49 49 50 51 51
25 25 25 25 25 25 25 25 24 24 24 24 24 24 25 26 26 27 27 28 28 28 29 30 31 33 34 35 36 38 39 41 42 43 44 46 47 47 48 48 49 49 49
25 26 26 26 25 25 25 25 25 25 24 24 24 25 25 25 26 26 26 27 27 28 29 30 32 33 34 35 37 38 39 40 41 42 43 44 44 45 45 46 46 46 46
26 26 26 27 27 27 26 26 26 26 25 25 25 26 26 26 27 27 27 28 27 28 30 31 32 33 34 35 37 38 39 40 40 41 41 41 42 42 42 42 42 42 41
26 26 26 26 27 27 27 26 27 27 27 27 27 27 27 27 27 27 28 28 28 29 30 31 32 33 34 35 36 36 37 38 38 38 38 38 39 39 38 38 37 35 35
24 25 26 26 26 25 25 26 26 26 27 27 27 27 27 27 27 27 27 27 27 28 29 31 31 32 33 33 34 34 35 35 35 35 35 35 35 34 34 33 31 30 29
23 24 24 25 26 25 25 24 25 25 25 25 25 25 25 25 25 26 26 27 27 27 28 29 30 31 31 31 32 32 32 32 32 31 31 30 29 29 29 28 27 26 24
23 24 23 24 24 24 24 25 24 24 24 25 25 24 25 25 24 24 24 25 26 26 27 28 28 28 28 29 29 29 29 29 28 27 27 26 25 24 24 23 23 21 20
21 21 22 22 22 22 23 24 23 23 23 23 23 23 23 23 22 22 23 24 24 25 26 26 26 26 26 27 27 26 26 26 24 24 23 23 22 22 22 21 19 17 16
18 19 19 20 20 20 20 20 21 21 21 20 20 20 20 20 21 21 22 22 23 24 24 24 24 24 24 24 24 24 23 23 22 21 20 20 20 20 19 18 17 15 14
16 16 16 17 17 17 18 19 19 19 19 19 19 19 19 19 20 20 21 21 22 22 22 22 21 21 21 21 21 21 21 20 19 19 19 19 18 18 17 15 14 12 11
14 14 15 15 15 16 17 17 17 17 18 18 17 17 18 18 18 19 19 19 19 19 19 19 19 19 19 19 19 19 18 18 18 18 18 17 17 16 14 13 11 10 9
13 13 14 14 14 14 15 15 15 15 15 15 16 16 16 16 16 17 17 17 17 17 17 17 17 18 18 17 17 17 16 16 17 17 16 15 15 14 13 11 9 9 8
12 12 12 12 12 12 12 13 13 13 13 14 14 14 14 14 15 15 15 15 15 15 16 16 16 16 16 16 16 16 16 16 15 15 14 14 13 12 11 9 8 7 6
10 10 11 11 11 11 11 11 11 11 11 11 11 12 12 13 13 13 13 14 14 14 14 14 15 15 15 15 15 15 14 14 14 14 13 13 11 10 9 7 6 5 4
9 9 9 9 9 9 9 9 9 9 9 10 10 11 11 12 11 11 12 12 13 13 13 13 13 13 13 13 13 13 13 13 12 12 11 11 10 8 7 6 5 3 3
6 7 7 7 8 8 8 8 8 8 9 9 9 10 10 10 10 10 10 11 11 11 11 12 12 12 12 12 12 12 12 11 11 11 10 9 8 7 5 4 3 2 2
4 5 5 6 6 7 7 7 7 8 8 7 7 8 8 8 9 8 8 9 9 10 10 11 11 11 11 11 11 11 11 10 10 9 9 8 6 5 3 3 2 1 1
3 3 3 4 4 5 5 5 6 6 6 6 6 6 6 6 6 7 7 7 8 9 9 10 10 10 10 10 10 10 9 9 8 7 7 5 4 3 2 2 1 2 2
1 1 2 1 1 1 2 3 3 3 4 4 4 4 5 5 5 5 6 7 7 8 8 9 9 9 9 9 9 8 8 7 6 6 5 4 3 2 2 1 2 2 3
1 1 2 2 1 1 1 1 1 2 3 3 3 3 3 3 4 5 5 6 6 7 8 8 8 8 8 8 8 7 6 6 5 4 3 3 2 2 2 2 2 3 3
4 4 4 3 3 3 3 2 3 3 3 3 3 3 3 3 4 5 5 6 7 7 8 8 8 7 7 7 6 6 6 5 4 3 3 3 2 3 3 3 4 4 4
7 6 6 5 5 5 5 5 5 5 5 5 5 5 5 5 5 5 6 7 7 7 8 8 8 8 7 7 6 6 5 5 4 3 3 3 3 4 4 4 4 4 4
9 9 9 8 7 7 7 7 6 6 6 6 6 7 7 7 7 7 7 7 8 8 9 9 9 9 8 8 7 6 6 5 5 5 5 5 5 4 4 4 4 4 4
13 13 12 11 10 10 9 9 9 8 8 8 8 8 8 8 8 8 8 9 9 9 10 10 10 10 10 10 9 8 8 7 6 6 6 6 5 5 5 4 4 4 4
16 15 14 13 13 12 11 11 11 10 10 10 10 9 9 9 9 10 10 10 10 11 11 11 11 11 11 11 11 10 10 9 9 8 7 7 6 6 5 5 4 4 4

GEFSGL_500_meanwind_084.txt.gz
Wind_Speed
18 18 18 18 19 19 20 20 19 19 18 19 20 20 20 20 20 20 21 22 23 24 25 25 26 27 27 28 28 29 30 31 32 34 35 36 37 39 40 42 43 43 44
17 17 18 18 19 19 19 19 18 18 18 18 19 20 20 19 19 20 21 22 22 23 23 24 25 26 26 27 27 28 29 30 31 33 35 36 38 39 41 41 42 42 42
17 18 18 19 19 19 19 19 19 18 18 18 19 20 20 20 20 20 21 21 21 22 22 23 24 24 25 26 27 28 29 30 32 33 35 36 37 38 39 39 39 39 40
17 18 18 18 19 19 20 20 20 20 20 20 20 20 20 20 20 20 21 21 21 22 22 23 24 24 25 26 27 28 29 31 32 33 34 35 36 36 36 37 37 37 37
16 16 18 19 20 21 21 20 20 21 22 22 22 21 21 21 21 21 21 22 22 22 22 22 23 24 25 26 27 28 29 30 31 32 32 33 33 34 34 34 34 34 33
17 18 18 18 19 19 20 20 20 20 21 22 22 22 22 21 21 21 22 22 22 22 22 22 23 24 25 25 27 27 28 28 29 30 30 31 31 32 31 31 31 30 29
18 18 18 19 18 18 18 20 21 20 20 20 20 20 20 21 21 21 21 21 21 21 22 22 22 23 24 25 26 26 27 27 28 28 29 29 29 29 28 28 28 27 25
18 18 18 19 19 19 19 19 19 19 19 19 19 19 19 19 19 20 20 20 20 20 21 21 22 23 24 24 24 25 25 26 26 27 27 27 27 26 25 24 23 22 21
17 17 17 18 17 17 18 19 19 19 19 18 18 18 19 19 19 19 19 18 19 20 21 21 22 22 23 23 22 23 23 24 24 24 24 24 23 22 22 20 20 19 18
15 15 16 16 16 16 16 17 17 17 17 16 17 17 17 18 18 17 17 18 18 19 20 20 20 20 21 21 21 21 22 22 22 21 21 20 20 19 19 18 17 17 16
12 13 14 14 14 14 14 14 15 16 16 15 15 16 16 16 16 17 17 17 18 18 18 19 19 19 19 19 19 19 19 19 19 18 18 17 17 17 17 16 16 15 13
10 10 10 11 11 11 11 12 13 14 15 15 15 15 15 16 16 16 16 17 17 17 17 18 18 18 17 17 17 17 17 17 16 16 15 15 15 15 15 14 13 12 11
8 9 9 10 10 11 11 12 12 12 12 13 13 14 14 15 15 15 15 16 16 15 15 15 16 15 15 15 15 15 15 14 14 14 14 14 14 14 13 12 11 10 10
8 8 9 9 9 9 10 10 10 9 10 11 11 11 11 12 12 12 13 13 13 13 14 14 14 13 13 14 13 13 13 13 13 13 13 13 12 12 11 11 10 9 8
6 7 8 8 8 8 8 8 7 7 7 8 8 8 8 9 9 10 11 11 11 11 12 12 12 12 12 12 12 12 12 12 12 12 12 11 11 10 10 9 8 7 7
5 5 6 6 6 6 6 6 6 6 6 6 6 6 6 7 8 8 9 9 9 9 9 10 10 10 10 10 10 10 11 11 11 11 10 10 9 9 8 7 6 6 5
2 4 5 5 5 5 5 5 5 5 5 5 5 5 5 5 6 6 7 6 7 7 8 8 9 9 9 9 9 9 9 10 10 9 9 8 8 8 7 5 5 4 4
3 3 4 4 4 4 4 4 3 3 3 3 3 3 3 4 4 4 4 5 5 6 6 7 7 7 7 7 8 8 9 9 8 8 7 7 7 6 5 4 4 3 3
4 4 4 3 4 4 4 3 3 2 2 1 0 1 2 2 2 3 3 3 4 5 5 5 6 6 6 6 7 8 8 7 7 6 6 6 5 4 3 3 3 2 2
6 6 5 5 5 5 5 5 4 4 3 2 2 2 2 1 1 1 2 3 3 4 5 5 5 6 6 6 6 7 7 6 5 5 5 4 3 2 2 2 2 2 2
7 7 7 7 7 7 7 7 6 5 5 5 5 4 4 4 4 4 4 4 4 4 5 5 5 5 6 6 6 6 5 5 4 4 3 3 2 2 2 2 2 2 2
9 9 9 9 8 8 8 8 7 7 7 7 6 6 6 6 6 6 5 5 6 6 6 6 6 6 6 6 6 5 5 5 4 3 3 3 3 3 3 3 2 2 2
11 10 10 10 10 10 10 10 9 9 9 8 8 8 8 7 7 7 7 7 8 8 8 8 8 8 8 8 7 6 6 5 5 4 4 4 4 4 3 3 3 3 3
13 12 13 13 12 12 12 11 11 11 11 10 10 10 9 9 9 9 9 9 9 10 10 10 10 10 10 10 9 8 8 7 6 6 5 5 5 4 4 4 4 4 4
15 15 15 15 14 14 13 13 13 13 12 12 11 11 11 11 11 10 10 11 11 11 11 11 11 11 11 11 11 11 10 9 9 8 7 6 6 5 5 5 4 5 5
17 17 17 17 16 16 15 15 15 14 13 13 13 12 12 12 12 11 11 11 12 12 12 12 12 12 12 12 11 11 10 9 9 8 7 6 6 5 5 5 6 6 6

GEFSGL_500_meanwind_090.txt.gz
Wind_Speed
19 19 20 20 19 20 21 21 21 22 23 23 23 22 22 22 22 23 24 25 25 26 26 26 26 27 27 28 28 29 30 29 30 30 30 31 31 32 33 34 34 36 37
19 20 20 20 20 20 20 20 21 21 21 22 22 22 22 22 21 22 23 23 24 24 24 24 25 26 27 27 27 27 28 29 29 29 29 29 30 32 33 34 35 36 37
19 20 20 20 20 20 21 21 21 21 22 22 22 22 22 21 20 20 20 21 21 21 22 23 24 25 25 25 25 26 27 27 27 28 29 30 31 32 33 34 35 35 36
19 20 20 21 21 21 21 22 22 23 23 22 23 23 22 22 21 21 21 21 21 21 22 23 23 23 23 24 25 25 26 26 26 27 29 30 31 32 33 33 33 33 33
19 20 20 21 21 21 22 22 22 22 23 22 22 22 22 22 22 22 23 22 22 22 22 22 22 22 23 23 24 24 24 25 26 27 29 30 30 30 31 31 31 31 31
20 20 21 21 21 22 23 22 22 22 22 23 22 23 23 23 23 23 23 22 22 22 22 22 23 23 23 23 23 23 24 25 26 27 28 28 29 29 29 29 30 30 29
21 21 21 21 21 21 21 21 21 21 20 21 21 21 21 21 22 22 21 21 21 21 21 22 21 21 22 22 23 23 24 25 25 26 26 27 27 27 28 28 28 27 27
20 20 20 20 20 21 21 21 20 19 20 19 19 19 19 19 20 20 21 21 21 21 21 21 21 21 22 22 22 22 23 24 24 25 25 26 26 26 26 25 25 24 24
18 18 18 19 20 19 19 19 19 20 20 19 19 18 18 18 18 18 19 19 20 20 20 20 21 21 21 21 22 22 23 24 24 24 24 25 24 24 23 22 22 21 21
17 17 17 17 18 17 17 17 17 17 17 18 18 17 17 17 17 17 17 17 18 18 19 19 20 20 20 21 21 22 23 23 23 23 23 22 22 21 20 19 19 19 18
15 14 14 15 16 16 16 16 15 15 15 16 16 17 17 17 16 17 16 16 17 18 19 20 19 19 20 20 21 21 21 22 22 21 20 20 19 17 17 17 17 16 16
12 12 12 12 12 13 13 13 14 14 13 14 15 15 15 16 16 15 16 17 17 18 19 19 19 19 19 20 20 20 21 20 19 19 18 17 16 16 15 15 15 15 14
9 9 10 9 9 10 10 11 11 12 13 13 13 13 13 14 14 14 14 16 16 17 18 18 18 18 18 19 19 18 18 18 17 16 15 15 14 14 14 14 14 13 13
7 7 8 8 8 8 9 10 9 10 10 11 11 11 11 11 12 12 13 13 15 15 16 16 17 17 17 16 16 16 15 15 14 14 14 13 13 13 13 12 12 12 11
5 6 6 6 7 7 7 8 8 7 8 8 9 9 10 10 10 11 11 12 12 12 13 14 14 14 13 13 13 13 13 12 12 12 12 12 12 11 11 11 10 9 9
4 5 5 6 7 6 6 6 6 6 6 6 6 6 7 7 7 7 8 9 9 10 11 11 11 11 11 10 10 10 10 11 11 11 10 10 10 10 10 9 8 8 7
3 4 5 5 5 5 6 5 5 5 4 4 4 3 3 4 4 5 5 6 7 8 8 8 8 8 8 8 8 9 9 9 9 9 9 9 9 9 9 8 7 6 5
3 3 4 5 5 5 5 4 4 3 2 2 2 1 1 1 2 2 3 4 5 5 6 6 6 6 6 7 7 8 8 8 8 7 7 7 8 7 7 6 5 4 4
4 5 5 5 5 5 5 4 4 4 4 3 3 3 2 2 2 2 2 3 3 4 4 4 5 5 6 6 6 7 6 6 6 6 6 6 6 5 5 5 4 4 3
7 7 7 7 7 7 7 6 6 6 5 5 5 5 5 5 4 4 4 5 5 5 5 5 5 5 5 5 5 5 5 5 5 5 5 5 5 4 4 4 4 3 3
10 10 9 9 9 9 9 8 8 8 7 7 7 7 7 7 7 7 7 7 7 7 6 6 6 7 7 6 6 6 6 5 5 5 5 5 5 4 4 4 4 4 4
12 12 11 11 10 10 10 10 10 10 10 9 9 9 9 9 9 9 9 9 9 9 8 8 9 9 8 8 8 8 7 7 6 6 6 5 5 5 5 5 5 5 5
13 13 13 13 12 12 12 12 12 11 11 11 11 11 11 12 12 11 11 11 11 11 11 11 10 10 10 10 10 10 9 9 8 8 7 6 6 6 6 5 5 6 6
14 14 14 14 15 14 14 14 14 13 13 13 13 13 12 12 12 13 12 12 12 12 12 12 12 12 12 12 12 11 11 10 10 9 8 8 7 7 7 7 7 7 8
15 15 15 16 16 16 16 16 15 15 15 15 14 13 13 13 13 13 13 13 13 13 13 13 13 13 13 12 12 12 11 10 10 9 9 8 8 8 8 9 9 9 10
16 16 16 17 17 17 16 16 16 16 15 15 14 14 13 13 13 13 13 13 13 13 13 13 13 13 12 12 12 12 11 10 10 9 9 9 9 9 10 10 11 11 12

GEFSGL_500_meanwind_096.txt.gz
Wind_Speed
20 20 21 21 21 22 22 23 24 24 25 25 26 26 27 28 28 28 28 28 28 28 28 28 29 30 30 31 32 33 33 33 33 33 34 34 34 34 34 34 34 34 34
21 21 21 21 22 22 22 22 22 23 24 25 25 25 26 27 27 27 27 27 28 27 27 27 27 28 29 30 30 31 31 31 31 31 32 33 32 33 33 32 32 32 33
22 22 22 22 22 22 22 22 22 23 23 23 24 24 25 25 25 25 25 26 27 26 26 26 26 27 26 27 28 28 28 28 29 30 29 29 30 31 30 31 31 31 32
23 23 23 23 23 23 23 23 23 23 23 23 23 23 23 24 23 24 24 24 24 24 24 24 24 25 25 25 26 26 26 26 27 27 27 28 28 29 28 29 29 30 31
24 23 23 23 24 23 23 24 24 24 23 23 23 23 23 22 22 22 23 23 23 23 23 23 23 24 25 25 25 25 25 25 25 25 26 26 26 26 27 28 28 29 29
25 24 23 23 24 24 24 24 23 23 23 23 23 23 23 23 23 22 22 22 22 22 23 23 23 23 22 23 23 24 24 23 23 23 24 24 24 24 25 26 27 27 28
24 24 24 23 23 23 23 22 22 22 22 22 23 23 22 22 22 22 22 21 21 21 21 21 20 21 21 20 21 21 21 22 22 21 22 23 23 24 25 25 26 26 27
22 23 23 22 22 21 21 21 21 20 20 21 20 19 19 19 19 18 18 18 18 18 18 18 18 18 18 18 19 20 20 20 20 21 22 22 23 23 24 24 25 25 26
20 20 20 20 19 19 19 19 19 18 17 17 16 15 16 15 15 15 15 15 14 15 16 16 17 17 17 18 18 18 19 19 20 21 21 21 22 22 22 23 23 23 23
17 16 16 16 16 16 16 16 16 16 15 15 15 14 13 12 13 13 13 13 13 14 14 15 15 16 17 17 17 18 18 19 20 21 21 21 21 21 21 21 21 21 21
14 14 13 12 12 12 12 13 13 13 13 12 12 11 11 11 11 11 11 12 12 13 14 14 15 16 16 16 17 17 18 19 20 20 20 20 20 20 19 19 19 19 19
10 10 9 10 10 10 9 10 10 11 11 10 11 10 10 10 10 10 10 10 10 11 12 13 13 14 15 15 16 16 17 17 18 18 18 18 17 17 17 16 17 17 17
7 7 7 8 8 8 8 8 9 9 10 9 8 8 8 8 7 8 8 8 9 9 10 11 12 13 14 14 15 15 15 15 15 15 15 15 14 14 14 14 15 15 15
4 5 6 6 6 6 6 7 8 7 7 7 7 7 7 7 6 6 6 6 7 8 9 10 11 12 12 12 13 13 12 12 12 12 12 12 12 12 12 13 13 14 14
3 4 4 5 7 6 6 6 6 6 6 6 6 5 5 5 5 5 6 5 6 7 8 9 9 10 10 10 10 10 10 9 9 10 10 10 10 11 11 12 12 12 12
3 3 3 5 6 6 6 6 6 5 5 4 5 5 4 4 4 4 4 4 5 5 6 7 7 7 7 7 7 6 7 7 8 8 8 9 9 9 10 10 10 10 9
3 4 4 5 6 7 7 6 6 6 5 4 4 4 3 3 3 3 3 3 3 4 4 4 4 4 3 4 4 5 5 6 7 7 7 7 8 8 8 8 8 7 7
6 6 6 6 7 7 7 6 6 6 6 6 5 5 4 3 2 2 2 1 0 0 1 1 2 2 2 3 3 4 5 5 5 6 6 6 5 5 6 6 6 6 6
7 7 8 8 9 8 8 8 8 8 8 8 8 7 7 6 6 5 5 5 4 4 3 3 3 3 3 3 3 3 3 4 4 4 4 4 4 4 5 5 6 6 6
8 9 9 9 10 10 10 10 10 10 10 10 10 9 8 8 8 8 8 7 7 6 6 5 5 5 5 4 4 4 4 4 4 4 4 4 4 4 5 5 6 6 6
11 11 11 11 11 11 11 12 12 12 12 11 11 11 11 10 10 10 10 10 9 9 8 7 7 7 7 7 6 6 5 5 5 5 5 5 5 5 5 6 6 6 6
13 13 13 13 13 13 14 14 14 13 13 12 12 12 13 13 12 12 12 11 11 10 9 9 9 9 8 8 8 7 7 7 7 6 6 6 6 6 6 6 7 7 8
15 15 15 15 15 15 15 15 15 15 14 14 14 14 14 14 14 13 13 13 12 11 11 11 10 10 10 10 9 9 8 7 7 7 7 7 7 7 7 8 8 9 9
16 16 16 16 17 17 17 16 16 16 15 15 15 15 14 14 14 13 13 12 12 12 12 12 12 11 11 10 10 9 8 8 8 8 8 8 8 8 9 9 10 11 11
17 17 17 17 17 17 17 17 16 16 16 16 15 15 15 14 14 13 13 13 13 13 13 12 12 12 11 11 10 10 10 9 9 9 9 9 9 10 10 11 11 12 12
17 17 17 17 17 17 17 16 16 16 16 15 15 15 15 14 14 13 13 13 13 12 12 12 11 11 11 11 11 11 11 10 10 10 10 11 11 12 12 12 13 13 14